Location: Dortmund
(51.5019°N, 7.6520°E)
Time: 18:09:30
(UTC+01:00)

ISS - Visible Passes

Search period start: 21 November 2017 00:00
Search period end: 01 December 2017 00:00
Orbit: 402 x 407 km, 51.6° (Epoch: 22 November)

Date Brightness Start Highest point End Pass type
(mag) Time Alt. Az. Time Alt. Az. Time Alt. Az.
28 Nov -1.4 18:16:53 10° SSE 18:17:52 12° SSE 18:17:52 12° SSE visible
29 Nov -1.7 18:58:59 10° SW 19:00:26 21° SSW 19:00:26 21° SSW visible
30 Nov -2.2 18:07:07 10° SSW 18:09:45 22° SE 18:10:16 21° SE visible
30 Nov -0.5 19:42:36 10° WSW 19:42:55 12° WSW 19:42:55 12° WSW visible
